TimeEDT,TemperatureF,Dew PointF,Humidity,Sea Level PressureIn,VisibilityMPH,Wind Direction,Wind SpeedMPH,Gust SpeedMPH,PrecipitationIn,Events,Conditions,WindDirDegrees,DateUTC
12:53 AM,73.0,55.9,55,30.10,10.0,SE,4.6,-,N/A,,Clear,130,2012-06-16 04:53:00
1:53 AM,69.1,55.9,63,30.09,10.0,Calm,Calm,-,N/A,,Clear,0,2012-06-16 05:53:00
2:53 AM,68.0,57.9,70,30.09,10.0,SE,3.5,-,N/A,,Clear,130,2012-06-16 06:53:00
3:53 AM,68.0,57.9,70,30.09,10.0,South,4.6,-,N/A,,Clear,170,2012-06-16 07:53:00
4:53 AM,68.0,59.0,73,30.09,10.0,South,4.6,-,N/A,,Clear,170,2012-06-16 08:53:00
5:53 AM,68.0,59.0,73,30.10,10.0,Calm,Calm,-,N/A,,Clear,0,2012-06-16 09:53:00
6:53 AM,68.0,60.1,76,30.12,10.0,Calm,Calm,-,N/A,,Clear,0,2012-06-16 10:53:00
7:53 AM,71.1,61.0,70,30.13,10.0,Calm,Calm,-,N/A,,Clear,0,2012-06-16 11:53:00
8:53 AM,73.9,62.1,66,30.13,10.0,South,5.8,-,N/A,,Clear,170,2012-06-16 12:53:00
9:53 AM,78.1,64.0,62,30.10,10.0,SE,5.8,-,N/A,,Clear,130,2012-06-16 13:53:00
10:53 AM,84.0,64.0,51,30.09,10.0,South,10.4,-,N/A,,Clear,170,2012-06-16 14:53:00
11:53 AM,86.0,64.9,49,30.08,10.0,SSE,4.6,-,N/A,,Clear,160,2012-06-16 15:53:00
12:53 PM,88.0,66.0,48,30.07,10.0,South,12.7,-,N/A,,Clear,180,2012-06-16 16:53:00
1:53 PM,90.0,63.0,40,30.05,10.0,South,12.7,17.3,N/A,,Scattered Clouds,180,2012-06-16 17:53:00
2:53 PM,91.0,62.1,38,30.01,10.0,South,13.8,24.2,N/A,,Scattered Clouds,190,2012-06-16 18:53:00
3:53 PM,91.9,61.0,35,30.00,10.0,South,17.3,26.5,N/A,,Partly Cloudy,190,2012-06-16 19:53:00
4:53 PM,89.1,61.0,39,29.97,10.0,South,11.5,17.3,N/A,,Scattered Clouds,170,2012-06-16 20:53:00
5:53 PM,89.1,61.0,39,29.96,10.0,South,11.5,20.7,N/A,,Partly Cloudy,190,2012-06-16 21:53:00
6:53 PM,87.1,61.0,41,29.96,10.0,SSW,18.4,27.6,0.00,,Mostly Cloudy,210,2012-06-16 22:53:00
7:53 PM,84.0,63.0,49,29.92,10.0,South,10.4,-,N/A,,Clear,180,2012-06-16 23:53:00
8:53 PM,81.0,59.0,47,29.93,10.0,SSW,10.4,-,N/A,,Clear,210,2012-06-17 00:53:00
9:53 PM,79.0,60.1,52,29.92,10.0,SSE,5.8,-,N/A,,Clear,160,2012-06-17 01:53:00
10:53 PM,78.1,60.1,54,29.91,10.0,South,10.4,-,N/A,,Clear,180,2012-06-17 02:53:00
11:53 PM,78.1,62.1,58,29.90,10.0,South,12.7,-,N/A,,Clear,190,2012-06-17 03:53:00